When you browse on this site, cookies collect data to enhance your experience and personalize the content and advertising you see.
Visit our Privacy Policy to learn more. By continuing to use the site, you agree to this use of cookies and data.
  • In United Kingdom
  • List of Countries
  • For 7 days
  • Water Temperature
  • Weather Map
  • Weather Widgets
  • user-avatar
    Login

    Hourly Weather Plymouth

    Today, 28 January, Tuesday

    Time Temperature Precipitation Wind Pressure Humidity
    00:00 +1°C° 0 mm 11 mps 743 mmHg 84%
    01:00 +1°C° 0.2 mm 11 mps 743 mmHg 82%
    02:00 +1°C° 0.2 mm 11 mps 744 mmHg 79%
    03:00 +1°C° 0.2 mm 11 mps 745 mmHg 77%
    04:00 +1°C° 0.2 mm 11 mps 745 mmHg 77%
    05:00 +1°C° 0.2 mm 10 mps 746 mmHg 77%
    06:00 +1°C° 0.2 mm 10 mps 746 mmHg 77%
    07:00 +1°C° 0.2 mm 10 mps 746 mmHg 77%
    08:00 +1°C° 0.2 mm 10 mps 747 mmHg 78%
    09:00 +1°C° 0.2 mm 10 mps 748 mmHg 79%
    10:00 +2°C° 0.3 mm 11 mps 748 mmHg 76%
    11:00 +3°C° 0.3 mm 11 mps 749 mmHg 74%
    12:00 +3°C° 0.3 mm 12 mps 749 mmHg 71%
    13:00 +3°C° 0.3 mm 12 mps 750 mmHg 72%
    14:00 +3°C° 0.3 mm 12 mps 750 mmHg 73%
    15:00 +2°C° 0.3 mm 12 mps 750 mmHg 74%
    16:00 +2°C° 0.1 mm 11 mps 751 mmHg 75%
    17:00 +1°C° 0.1 mm 11 mps 751 mmHg 75%
    18:00 +1°C° 0.1 mm 10 mps 752 mmHg 76%
    19:00 +1°C° 0 mm 10 mps 753 mmHg 76%
    20:00 +1°C° 0 mm 9 mps 753 mmHg 77%
    21:00 +1°C° 0 mm 8 mps 753 mmHg 77%
    22:00 +1°C° 0 mm 8 mps 754 mmHg 81%
    23:00 +1°C° 0 mm 8 mps 754 mmHg 84%

    Tomorrow, 29 January, Wednesday

    Time Temperature Precipitation Wind Pressure Humidity
    00:00 +1°C° 0 mm 8 mps 755 mmHg 88%
    01:00 +2°C° 0.1 mm 7 mps 755 mmHg 87%
    02:00 +2°C° 0.1 mm 7 mps 755 mmHg 87%
    03:00 +2°C° 0.1 mm 7 mps 755 mmHg 86%
    04:00 +2°C° 0 mm 7 mps 756 mmHg 86%
    05:00 +2°C° 0 mm 6 mps 756 mmHg 86%
    06:00 +2°C° 0 mm 6 mps 757 mmHg 85%
    07:00 +2°C° 0 mm 6 mps 757 mmHg 86%
    08:00 +3°C° 0 mm 5 mps 757 mmHg 87%
    09:00 +3°C° 0 mm 5 mps 758 mmHg 88%
    10:00 +5°C° 0 mm 5 mps 758 mmHg 84%
    11:00 +5°C° 0 mm 6 mps 758 mmHg 81%
    12:00 +8°C° 0 mm 6 mps 758 mmHg 77%
    13:00 +8°C° 0 mm 6 mps 758 mmHg 79%
    14:00 +8°C° 0 mm 6 mps 757 mmHg 80%
    15:00 +8°C° 0 mm 6 mps 757 mmHg 81%
    16:00 +7°C° 0 mm 5 mps 757 mmHg 86%
    17:00 +6°C° 0 mm 5 mps 757 mmHg 90%
    18:00 +6°C° 0 mm 5 mps 756 mmHg 94%
    19:00 +6°C° 0 mm 5 mps 756 mmHg 95%
    20:00 +6°C° 0 mm 5 mps 756 mmHg 95%
    21:00 +6°C° 0 mm 5 mps 756 mmHg 95%
    22:00 +7°C° 0 mm 5 mps 755 mmHg 95%
    23:00 +7°C° 0 mm 5 mps 755 mmHg 96%

    Day after tomorrow, 30 January, Thursday

    Time Temperature Precipitation Wind Pressure Humidity
    00:00 +8°C° 0 mm 5 mps 754 mmHg 96%
    01:00 +8°C° 0 mm 5 mps 753 mmHg 97%
    02:00 +8°C° 0 mm 5 mps 752 mmHg 97%
    03:00 +8°C° 0 mm 5 mps 752 mmHg 98%
    04:00 +8°C° 0.1 mm 4 mps 751 mmHg 98%
    05:00 +8°C° 0.1 mm 4 mps 750 mmHg 98%
    06:00 +8°C° 0.1 mm 4 mps 750 mmHg 98%
    07:00 +9°C° 0.3 mm 3 mps 750 mmHg 98%
    08:00 +10°C° 0.3 mm 3 mps 750 mmHg 98%
    09:00 +10°C° 0.3 mm 2 mps 750 mmHg 98%
    10:00 +11°C° 0 mm 3 mps 750 mmHg 95%
    11:00 +12°C° 0 mm 3 mps 751 mmHg 93%
    12:00 +13°C° 0 mm 4 mps 751 mmHg 91%
    13:00 +12°C° 0 mm 5 mps 751 mmHg 90%
    14:00 +12°C° 0 mm 5 mps 752 mmHg 90%
    15:00 +10°C° 0 mm 6 mps 752 mmHg 89%
    16:00 +10°C° 0 mm 6 mps 752 mmHg 91%
    17:00 +9°C° 0 mm 5 mps 753 mmHg 92%
    18:00 +9°C° 0 mm 5 mps 753 mmHg 93%
    19:00 +9°C° 0 mm 5 mps 753 mmHg 94%
    20:00 +8°C° 0 mm 5 mps 754 mmHg 96%
    21:00 +8°C° 0 mm 6 mps 754 mmHg 97%
    22:00 +8°C° 0 mm 5 mps 754 mmHg 97%
    23:00 +9°C° 0 mm 5 mps 754 mmHg 97%

    31 January, Friday

    Time Temperature Precipitation Wind Pressure Humidity
    00:00 +9°C° 0 mm 5 mps 754 mmHg 97%
    01:00 +9°C° 0 mm 5 mps 754 mmHg 97%
    02:00 +10°C° 0 mm 6 mps 754 mmHg 97%
    03:00 +10°C° 0 mm 6 mps 754 mmHg 98%
    04:00 +10°C° 0 mm 7 mps 754 mmHg 97%
    05:00 +10°C° 0 mm 7 mps 753 mmHg 96%
    06:00 +10°C° 0 mm 7 mps 753 mmHg 95%
    07:00 +10°C° 0.1 mm 7 mps 753 mmHg 95%
    08:00 +10°C° 0.1 mm 8 mps 753 mmHg 96%
    09:00 +10°C° 0.1 mm 8 mps 753 mmHg 96%
    10:00 +10°C° 0.5 mm 9 mps 753 mmHg 96%
    11:00 +10°C° 0.5 mm 9 mps 753 mmHg 97%
    12:00 +11°C° 0.5 mm 9 mps 752 mmHg 97%
    13:00 +11°C° 0.2 mm 9 mps 752 mmHg 97%
    14:00 +11°C° 0.2 mm 8 mps 752 mmHg 96%
    15:00 +11°C° 0.2 mm 8 mps 752 mmHg 96%
    16:00 +11°C° 0 mm 7 mps 752 mmHg 96%
    17:00 +11°C° 0 mm 7 mps 752 mmHg 96%
    18:00 +11°C° 0 mm 6 mps 752 mmHg 95%
    19:00 +10°C° 0 mm 6 mps 752 mmHg 94%
    20:00 +10°C° 0 mm 6 mps 752 mmHg 93%
    21:00 +10°C° 0 mm 6 mps 752 mmHg 92%
    22:00 +9°C° 0 mm 6 mps 752 mmHg 93%
    23:00 +9°C° 0 mm 6 mps 752 mmHg 94%

    1 February, Saturday

    Time Temperature Precipitation Wind Pressure Humidity
    00:00 +8°C° 0 mm 7 mps 752 mmHg 94%
    01:00 +9°C° 0.7 mm 7 mps 752 mmHg 94%
    02:00 +9°C° 0.7 mm 8 mps 752 mmHg 94%
    03:00 +8°C° 0.7 mm 9 mps 752 mmHg 93%
    04:00 +7°C° 0.4 mm 8 mps 753 mmHg 93%
    05:00 +7°C° 0.4 mm 8 mps 753 mmHg 92%
    06:00 +6°C° 0.4 mm 7 mps 753 mmHg 92%
    07:00 +6°C° 0 mm 7 mps 754 mmHg 91%
    08:00 +7°C° 0 mm 6 mps 755 mmHg 91%
    09:00 +7°C° 0 mm 6 mps 756 mmHg 91%
    10:00 +8°C° 0 mm 6 mps 756 mmHg 88%
    11:00 +9°C° 0 mm 7 mps 757 mmHg 85%
    12:00 +9°C° 0 mm 8 mps 757 mmHg 81%
    13:00 +10°C° 0 mm 7 mps 758 mmHg 81%
    14:00 +10°C° 0 mm 7 mps 758 mmHg 81%
    15:00 +10°C° 0 mm 7 mps 758 mmHg 81%
    16:00 +9°C° 0 mm 6 mps 758 mmHg 85%
    17:00 +8°C° 0 mm 6 mps 757 mmHg 89%
    18:00 +7°C° 0 mm 5 mps 757 mmHg 94%
    19:00 +8°C° 0 mm 7 mps 757 mmHg 95%
    20:00 +9°C° 0 mm 8 mps 756 mmHg 95%
    21:00 +9°C° 0 mm 10 mps 756 mmHg 96%
    22:00 +9°C° 0.3 mm 10 mps 755 mmHg 96%
    23:00 +11°C° 0.3 mm 11 mps 754 mmHg 96%

    2 February, Sunday

    Time Temperature Precipitation Wind Pressure Humidity
    00:00 +11°C° 0.3 mm 11 mps 753 mmHg 97%
    01:00 +10°C° 2.5 mm 13 mps 752 mmHg 96%
    02:00 +12°C° 2.5 mm 14 mps 750 mmHg 96%
    03:00 +11°C° 2.5 mm 16 mps 749 mmHg 96%
    04:00 +11°C° 0.9 mm 15 mps 750 mmHg 95%
    05:00 +12°C° 0.9 mm 14 mps 750 mmHg 95%
    06:00 +12°C° 0.9 mm 13 mps 750 mmHg 95%
    07:00 +10°C° 0.1 mm 12 mps 751 mmHg 93%
    08:00 +11°C° 0.1 mm 10 mps 751 mmHg 92%
    09:00 +10°C° 0.1 mm 9 mps 752 mmHg 90%
    10:00 +9°C° 0 mm 10 mps 753 mmHg 86%
    11:00 +11°C° 0 mm 10 mps 753 mmHg 83%
    12:00 +11°C° 0 mm 11 mps 754 mmHg 79%
    13:00 +9°C° 0 mm 11 mps 754 mmHg 79%
    14:00 +9°C° 0 mm 11 mps 754 mmHg 79%
    15:00 +9°C° 0 mm 12 mps 754 mmHg 79%
    16:00 +9°C° 0 mm 12 mps 755 mmHg 80%
    17:00 +8°C° 0 mm 11 mps 755 mmHg 81%
    18:00 +8°C° 0 mm 11 mps 755 mmHg 82%
    19:00 +8°C° 0 mm 11 mps 756 mmHg 83%
    20:00 +8°C° 0 mm 10 mps 756 mmHg 85%
    21:00 +8°C° 0 mm 10 mps 757 mmHg 86%
    22:00 +7°C° 0 mm 9 mps 757 mmHg 86%
    23:00 +7°C° 0 mm 8 mps 758 mmHg 86%
    Show more